STARLINK-3314 (50851 NORAD) Tracking and Keplerian Element Data

This shows tracking and keplerian element data for the satellite.

Feedback or suggestion? Click here.




ElementValue
Catalog50851
NameSTARLINK-3314
Epoch Orbit2189
Epoch Day140.91667824
Epoch Year2022
RAAN293.5581
Inclination53.2181
Eccentricity0.0002267
Argument of Perigee29.459
Mean Anonmoly253.6352
Mean Motion15.08835032
Decay Rate5.149E-05
L11 50851U 22001BA 22140.91667824 .00005149 00000+0 34144-3 0 9993
L22 50851 53.2181 293.5581 0002267 29.4590 253.6352 15.08835032 21891

Live tracking and technical data element details for STARLINK-3314 (NORAD 50851). STARLINK-3314 can be tracked NOW for your location showing map with azimuth and elevation plus other details from your city location.

Track the satellite on the map from your city or location and see movement details for azimuth, elevation, latitude, longitude, range, height, and movement on the map or in text.







IsCatalogInMostPopularTable: catalog: 50851, numindb: 23
Update: records affected: 1



GetName: 50851 STARLINK-3314

Hit Count: updated at: Mon, 23 May 2022 20:02:47 GMT